UB1CEQ-13 Weather Reports


time (UTC)temp
C
wind
direction
speed
KPH
gust
KPH
rain 1hr
cm
rain 24hr
cm
rain mn
cm
humidity
%
barometer
mb
20260906090003 12 0 0.0 0.0 0.00 0.00 0.00 64 1001.4
20260906085003 13 0 0.0 0.0 0.00 0.00 0.00 63 1001.4
20260906084003 13 0 0.0 0.0 0.00 0.00 0.00 63 1001.1
20260906083002 13 0 0.0 0.0 0.00 0.00 0.00 63 1001.1
20260906082003 13 0 0.0 0.0 0.00 0.00 0.00 60 1000.9
20260906081003 14 0 0.0 0.0 0.00 0.00 0.00 60 1000.7
20260906080003 13 0 0.0 0.0 0.00 0.00 0.00 62 1000.9
20260906075004 13 0 0.0 0.0 0.00 0.00 0.00 62 1000.6
20260906074003 12 0 0.0 0.0 0.00 0.00 0.00 64 1000.8
20260906073003 12 0 0.0 0.0 0.00 0.00 0.00 65 1000.8
20260906072003 12 0 0.0 0.0 0.00 0.00 0.00 65 1000.6
20260906071003 12 0 0.0 0.0 0.00 0.00 0.00 66 1000.4
20260906070002 12 0 0.0 0.0 0.00 0.00 0.00 65 1000.4
20260906065003 12 0 0.0 0.0 0.00 0.00 0.00 67 1000.3
20260906064003 12 0 0.0 0.0 0.00 0.00 0.00 68 1000.3
20260906063003 12 0 0.0 0.0 0.00 0.00 0.00 68 1000.0
20260906062003 12 0 0.0 0.0 0.00 0.00 0.00 71 1000.1
20260906061002 12 0 0.0 0.0 0.00 0.00 0.00 70 999.8
20260906060003 12 0 0.0 0.0 0.00 0.00 0.00 69 999.7
20260906055003 12 0 0.0 0.0 0.00 0.00 0.00 70 999.4
20260906054003 12 0 0.0 0.0 0.00 0.00 0.00 70 999.5
20260906053002 12 0 0.0 0.0 0.00 0.00 0.00 71 999.5
20260906052003 12 0 0.0 0.0 0.00 0.00 0.00 74 999.5
20260906051003 12 0 0.0 0.0 0.00 0.00 0.00 78 999.5
20260906050003 12 0 0.0 0.0 0.00 0.00 0.00 80 999.4
20260906045003 12 0 0.0 0.0 0.00 0.00 0.00 80 999.4
20260906044002 12 0 0.0 0.0 0.00 0.00 0.00 77 999.2
20260906043003 12 0 0.0 0.0 0.00 0.00 0.00 77 999.1
20260906042003 12 0 0.0 0.0 0.00 0.00 0.00 78 999.1
20260906041003 12 0 0.0 0.0 0.00 0.00 0.00 79 999.0
20260906040002 11 0 0.0 0.0 0.00 0.00 0.00 82 999.0
20260906035003 11 0 0.0 0.0 0.00 0.00 0.00 82 999.2
20260906034003 11 0 0.0 0.0 0.00 0.00 0.00 81 999.0
20260906033003 12 0 0.0 0.0 0.00 0.00 0.00 79 998.8
20260906032003 12 0 0.0 0.0 0.00 0.00 0.00 80 998.7
20260906031002 12 0 0.0 0.0 0.00 0.00 0.00 79 998.8
20260906030003 13 0 0.0 0.0 0.00 0.00 0.00 76 998.5
20260906025003 13 0 0.0 0.0 0.00 0.00 0.00 74 998.3
20260906024003 13 0 0.0 0.0 0.00 0.00 0.00 73 998.3
20260906023002 14 0 0.0 0.0 0.00 0.00 0.00 71 998.0
20260906022003 15 0 0.0 0.0 0.00 0.00 0.00 69 997.9
20260906021003 15 0 0.0 0.0 0.00 0.00 0.00 69 997.8
20260906020003 15 0 0.0 0.0 0.00 0.00 0.00 70 997.6
20260906015004 15 0 0.0 0.0 0.00 0.00 0.00 69 997.6
20260906014003 14 0 0.0 0.0 0.00 0.00 0.00 70 997.5
20260906013003 13 0 0.0 0.0 0.00 0.00 0.00 71 997.6
20260906012003 13 0 0.0 0.0 0.00 0.00 0.00 74 997.5
20260906011003 13 0 0.0 0.0 0.00 0.00 0.00 76 997.7
20260906010002 13 0 0.0 0.0 0.00 0.00 0.00 76 997.5
20260906005003 13 0 0.0 0.0 0.00 0.00 0.00 74 997.3
20260906004003 13 0 0.0 0.0 0.00 0.00 0.00 74 997.2
20260906003003 13 0 0.0 0.0 0.00 0.00 0.00 75 997.2
20260906002003 13 0 0.0 0.0 0.00 0.00 0.00 75 997.2
20260906001002 13 0 0.0 0.0 0.00 0.00 0.00 74 997.0
20260906000003 13 0 0.0 0.0 0.00 0.00 0.00 76 997.0
20260905235003 13 0 0.0 0.0 0.00 0.00 0.00 76 997.0
20260905234003 13 0 0.0 0.0 0.00 0.00 0.00 76 997.0
20260905233002 13 0 0.0 0.0 0.00 0.00 0.00 75 996.9
20260905232003 13 0 0.0 0.0 0.00 0.00 0.00 75 996.9
20260905231003 13 0 0.0 0.0 0.00 0.00 0.00 75 996.9
20260905230003 13 0 0.0 0.0 0.00 0.00 0.00 76 997.0
20260905225003 13 0 0.0 0.0 0.00 0.00 0.00 75 996.9
20260905224003 13 0 0.0 0.0 0.00 0.00 0.00 74 997.0
20260905223003 14 0 0.0 0.0 0.00 0.00 0.00 72 996.9
20260905222003 14 0 0.0 0.0 0.00 0.00 0.00 72 996.7
20260905221003 14 0 0.0 0.0 0.00 0.00 0.00 72 996.7
20260905220002 14 0 0.0 0.0 0.00 0.00 0.00 71 996.6
20260905215003 15 0 0.0 0.0 0.00 0.00 0.00 71 996.6
20260905214003 15 0 0.0 0.0 0.00 0.00 0.00 71 996.7
20260905213003 14 0 0.0 0.0 0.00 0.00 0.00 72 996.6
20260905212003 14 0 0.0 0.0 0.00 0.00 0.00 71 996.6
20260905211003 14 0 0.0 0.0 0.00 0.00 0.00 72 996.7
20260905210003 14 0 0.0 0.0 0.00 0.00 0.00 71 996.7
20260905205003 14 0 0.0 0.0 0.00 0.00 0.00 71 996.9
20260905204003 14 0 0.0 0.0 0.00 0.00 0.00 70 996.3
20260905203002 14 0 0.0 0.0 0.00 0.00 0.00 70 996.4
20260905202003 14 0 0.0 0.0 0.00 0.00 0.00 70 996.4
20260905201003 15 0 0.0 0.0 0.00 0.00 0.00 70 996.4
20260905200003 15 0 0.0 0.0 0.00 0.00 0.00 69 996.3
20260905195004 15 0 0.0 0.0 0.00 0.00 0.00 69 996.3
20260905194002 15 0 0.0 0.0 0.00 0.00 0.00 70 996.3
20260905193003 15 0 0.0 0.0 0.00 0.00 0.00 70 996.4
20260905192003 15 0 0.0 0.0 0.00 0.00 0.00 69 996.3
20260905191003 14 0 0.0 0.0 0.00 0.00 0.00 70 996.5
20260905190002 14 0 0.0 0.0 0.00 0.00 0.00 71 996.5
20260905185003 14 0 0.0 0.0 0.00 0.00 0.00 72 996.5
20260905184003 14 0 0.0 0.0 0.00 0.00 0.00 71 996.5
20260905183003 14 0 0.0 0.0 0.00 0.00 0.00 69 996.5
20260905182003 14 0 0.0 0.0 0.00 0.00 0.00 69 996.5
20260905181002 15 0 0.0 0.0 0.00 0.00 0.00 68 996.4
20260905180003 15 0 0.0 0.0 0.00 0.00 0.00 67 996.4
20260905175003 15 0 0.0 0.0 0.00 0.00 0.00 66 996.4
20260905174003 15 0 0.0 0.0 0.00 0.00 0.00 66 996.5
20260905173003 15 0 0.0 0.0 0.00 0.00 0.00 67 996.4
20260905172003 15 0 0.0 0.0 0.00 0.00 0.00 68 996.4
20260905171003 15 0 0.0 0.0 0.00 0.00 0.00 66 996.3
20260905170003 15 0 0.0 0.0 0.00 0.00 0.00 64 996.2
20260905165004 16 0 0.0 0.0 0.00 0.00 0.00 62 995.9
20260905164003 16 0 0.0 0.0 0.00 0.00 0.00 62 995.9
20260905163003 16 0 0.0 0.0 0.00 0.00 0.00 60 995.7
20260905162003 16 0 0.0 0.0 0.00 0.00 0.00 60 995.7
20260905161003 16 0 0.0 0.0 0.00 0.00 0.00 60 995.7
20260905160003 16 0 0.0 0.0 0.00 0.00 0.00 60 995.6
20260905155003 16 0 0.0 0.0 0.00 0.00 0.00 61 995.6
20260905154003 16 0 0.0 0.0 0.00 0.00 0.00 61 995.6
20260905153003 16 0 0.0 0.0 0.00 0.00 0.00 61 995.5
20260905152003 16 0 0.0 0.0 0.00 0.00 0.00 60 995.7
20260905151003 16 0 0.0 0.0 0.00 0.00 0.00 64 995.5
20260905150004 16 0 0.0 0.0 0.00 0.00 0.00 62 995.2
20260905145003 16 0 0.0 0.0 0.00 0.00 0.00 64 995.2
20260905144003 17 0 0.0 0.0 0.00 0.00 0.00 62 995.0
20260905143002 16 0 0.0 0.0 0.00 0.00 0.00 63 994.9
20260905142003 17 0 0.0 0.0 0.00 0.00 0.00 62 994.8
20260905141003 16 0 0.0 0.0 0.00 0.00 0.00 61 994.8
20260905140004 16 0 0.0 0.0 0.00 0.00 0.00 62 994.9
20260905135003 17 0 0.0 0.0 0.00 0.00 0.00 61 994.8
20260905134003 17 0 0.0 0.0 0.00 0.00 0.00 59 994.6
20260905133003 17 0 0.0 0.0 0.00 0.00 0.00 57 994.5
20260905132003 17 0 0.0 0.0 0.00 0.00 0.00 58 994.4
20260905131003 17 0 0.0 0.0 0.00 0.00 0.00 58 994.4
20260905130002 18 0 0.0 0.0 0.00 0.00 0.00 58 994.3
20260905125003 18 0 0.0 0.0 0.00 0.00 0.00 59 994.3
20260905124003 18 0 0.0 0.0 0.00 0.00 0.00 58 994.4
20260905123003 18 0 0.0 0.0 0.00 0.00 0.00 57 994.1
20260905122003 17 0 0.0 0.0 0.00 0.00 0.00 52 994.1
20260905121002 17 0 0.0 0.0 0.00 0.00 0.00 54 994.0
20260905120003 17 0 0.0 0.0 0.00 0.00 0.00 56 993.9
20260905115003 16 0 0.0 0.0 0.00 0.00 0.00 56 994.0
20260905114003 17 0 0.0 0.0 0.00 0.00 0.00 55 993.8
20260905113002 17 0 0.0 0.0 0.00 0.00 0.00 53 993.6
20260905112003 17 0 0.0 0.0 0.00 0.00 0.00 53 993.5
20260905111003 17 0 0.0 0.0 0.00 0.00 0.00 57 993.5
20260905110003 16 0 0.0 0.0 0.00 0.00 0.00 59 993.6
20260905105003 16 0 0.0 0.0 0.00 0.00 0.00 58 993.5
20260905104002 17 0 0.0 0.0 0.00 0.00 0.00 58 993.6
20260905103003 16 0 0.0 0.0 0.00 0.00 0.00 60 993.6
20260905102003 16 0 0.0 0.0 0.00 0.00 0.00 58 993.5
20260905101003 16 0 0.0 0.0 0.00 0.00 0.00 58 993.3
20260905100003 16 0 0.0 0.0 0.00 0.00 0.00 59 993.4
20260905095003 15 0 0.0 0.0 0.00 0.00 0.00 64 993.3
20260905094003 16 0 0.0 0.0 0.00 0.00 0.00 64 993.3
20260905093003 16 0 0.0 0.0 0.00 0.00 0.00 63 993.2
20260905092003 15 0 0.0 0.0 0.00 0.00 0.00 62 993.2
20260905091003 15 0 0.0 0.0 0.00 0.00 0.00 63 993.2